Location: Newark
(46.7636°N, 1.8358°W)
Time: 13:56:46
(UTC+00:00)

Vanguard 2 Rocket - Pass Details

Date: 18 October 2019
Orbit: 554 x 3326 km, 32.9° (Epoch: 13 November)

Event Time Altitude Azimuth Distance (km) Brightness Sun altitude
Rises 07:46:42 0° 201° (SSW) 6,377 11.3 11.6°
Reaches altitude 10° 07:51:42 10° 190° (S) 5,706 11.3 12.4°
Maximum altitude 08:05:29 27° 141° (SE) 4,948 12.2 14.4°
Drops below altitude 10° 08:20:05 10° 94° (E) 6,128 12.3 16.5°
Sets 08:25:38 0° 84° (E) 6,924 12.2 17.3°
